Вернуться в каталог

NOAA 16 DEB

АктивенSSO
NORAD 41525·DEBRIS·🇺🇸 United States

Запущен Sep 21, 2000 с Vandenberg Space Force Base

Loading…

Ближайшие Пролёты (ближайшие 24 часа)

TLE

СвежийSource: Space-Track

Эпоха: Sep 14, 2026, 10:31 UTC

1 41525U 00055MZ  26257.43869650  .00002357  00000-0  91063-3 0  9999
2 41525  98.6503 328.5454 0009974 253.2381 106.7708 14.31082029542396

Отслеживайте NOAA 16 DEB в реальном времени с AllMySat

Download on the App Store